User: anonymous   Login
Location: DARK SKY Beskydy - Park tmavé oblohy, www.darkskybeskydy.cz
(49.4926°N, 18.5016°E)
Time: 13:11:43
(UTC+02:00)
Language:

SR - Orbit

View from above orbital plane
View from above orbital plane
View from above satellite
View from above satellite

Ground track
Ground track

The orbit data is extracted from the following two-line orbital elements,

1 00046U 60007B   24205.76872123  .00003072  00000-0  61218-3 0  9995
2 00046  66.6922 315.6516 0194154  93.8713 268.4617 14.52180326356207
Epoch (UTC): 23 July 2024 18:26:57
Eccentricity: 0.0194154
inclination: 66.6922°
perigee height: 581 km
apogee height: 856 km
right ascension of ascending node: 315.6516°
argument of perigee: 93.8713°
revolutions per day: 14.52180326
mean anomaly at epoch: 268.4617°
orbit number at epoch: 35620

The dashed part of the orbit path shows where the satellite is in the earth's shadow,  

DLR